Change the Weather History Date:

Friday, January 28, 2011

  Actual Average Record
Temperature  
Mean Temperature 31 °F -  
Max Temperature 45 °F 32 °F 57 °F (2015)
Min Temperature 17 °F 12 °F -13 °F (1977)
Degree Days  
Heating Degree Days 34    
Moisture  
Dew Point 25 °F    
Average Humidity 84    
Maximum Humidity 99    
Minimum Humidity 58    
Precipitation  
Precipitation 0.00 in - - ()
Sea Level Pressure  
Sea Level Pressure 29.82 in    
Wind  
Wind Speed 2 mph (WSW)    
Max Wind Speed 16 mph    
Max Gust Speed 23 mph    
Visibility 6 miles    
Events Fog    
Averages and records for this station are not official NWS values.
T = Trace of Precipitation, MM = Missing Value Source: NWS Daily Summary

Daily Weather History Graph

Daily Weather History Graph

Search for Another Location

Airport or City:

Trip Planner

Search our weather history database for the weather conditions in past years. The results will help you decide how hot, cold, wet, or windy it might be!

Date:

Astronomy

Jan. 28, 2011 Rise Set
Actual Time 7:41 AM CST 5:36 PM CST
Civil Twilight 7:12 AM CST 6:06 PM CST
Nautical Twilight 6:38 AM CST 6:39 PM CST
Astronomical Twilight 6:05 AM CST 7:12 PM CST
Moon 3:20 AM CST (1/28) 12:40 PM CST (1/28)
Length of Visible Light 10h 54m
Length of Day
9h 55m
Waning Crescent, 27% of the Moon is Illuminated
Jan 28
Waning Crescent
Feb 2
New
Feb 11
First Quarter
Feb 18
Full
Feb 24
Last Quarter

Hourly Weather History & Observations

Time (CST) Temp. Windchill Dew Point Humidity Pressure Visibility Wind Dir Wind Speed Gust Speed Precip Events Conditions
12:10 AM 29.1 °F - 28.2 °F 96% 29.92 in 7.0 mi Calm Calm - N/A   Clear
12:30 AM 28.2 °F - 27.3 °F 96% 29.92 in 1.8 mi Calm Calm - N/A   Mist
12:50 AM 26.8 °F - 26.2 °F 98% 29.91 in 3.0 mi Calm Calm - N/A   Clear
1:10 AM 25.9 °F - 25.5 °F 99% 29.90 in 1.2 mi Calm Calm - N/A   Mist
1:30 AM 24.1 °F - 23.5 °F 98% 29.90 in 0.2 mi Calm Calm - N/A Fog Light Freezing Fog
1:50 AM 25.2 °F - 24.6 °F 98% 29.89 in 0.2 mi Calm Calm - N/A Fog Light Freezing Fog
2:10 AM 23.5 °F - 22.8 °F 97% 29.89 in 0.2 mi Calm Calm - N/A Fog Light Freezing Fog
2:30 AM 23.4 °F - 22.6 °F 97% 29.88 in 0.2 mi Calm Calm - N/A Fog Light Freezing Fog
2:50 AM 21.6 °F - 20.7 °F 96% 29.87 in 0.5 mi Calm Calm - N/A Fog Light Freezing Fog
3:10 AM 21.9 °F - 21.2 °F 97% 29.87 in 0.5 mi Calm Calm - N/A Fog Light Freezing Fog
3:30 AM 23.0 °F - 22.3 °F 97% 29.86 in 1.0 mi Calm Calm - N/A   Mist
3:50 AM 24.8 °F - 24.3 °F 98% 29.86 in 2.0 mi Calm Calm - N/A   Clear
4:10 AM 23.5 °F - 23.0 °F 98% 29.86 in 4.0 mi Calm Calm - N/A   Clear
4:30 AM 19.0 °F - 18.1 °F 96% 29.86 in 0.2 mi Calm Calm - N/A Fog Light Freezing Fog
4:50 AM 20.3 °F 15.4 °F 19.6 °F 97% 29.85 in 2.5 mi South 3.5 mph - N/A   Clear
5:10 AM 24.6 °F - 24.4 °F 99% 29.85 in 3.0 mi Calm Calm - N/A   Clear
5:30 AM 24.1 °F - 23.5 °F 98% 29.84 in 3.0 mi Calm Calm - N/A   Clear
5:50 AM 20.1 °F - 19.4 °F 97% 29.84 in 7.0 mi Calm Calm - N/A   Clear
6:10 AM 19.0 °F - 18.0 °F 96% 29.83 in 7.0 mi Calm Calm - N/A   Clear
6:30 AM 19.4 °F - 18.3 °F 96% 29.83 in 10.0 mi Calm Calm - N/A   Clear
6:50 AM 17.6 °F - 16.3 °F 95% 29.82 in 10.0 mi Calm Calm - N/A   Clear
7:10 AM 21.4 °F - 20.5 °F 96% 29.82 in 7.0 mi Calm Calm - N/A   Clear
7:30 AM 18.5 °F - 17.2 °F 95% 29.82 in 7.0 mi Calm Calm - N/A   Clear
7:50 AM 17.6 °F - 16.0 °F 93% 29.81 in 7.0 mi Calm Calm - N/A   Clear
8:10 AM 19.4 °F - 18.5 °F 96% 29.82 in 5.0 mi Calm Calm - N/A   Clear
8:30 AM 18.5 °F - 17.4 °F 96% 29.81 in 5.0 mi Calm Calm - N/A   Clear
8:50 AM 19.4 °F - 18.1 °F 95% 29.81 in 5.0 mi Calm Calm - N/A   Clear
9:10 AM 17.4 °F - 16.0 °F 94% 29.81 in 5.0 mi Calm Calm - N/A   Clear
9:30 AM 21.7 °F - 20.8 °F 96% 29.80 in 5.0 mi Calm Calm - N/A   Clear
9:50 AM 22.8 °F - 21.9 °F 96% 29.81 in 3.0 mi Calm Calm - N/A   Clear
10:10 AM 23.2 °F - 22.3 °F 96% 29.80 in 4.0 mi Calm Calm - N/A   Clear
10:30 AM 25.2 °F - 24.3 °F 96% 29.80 in 5.0 mi Calm Calm - N/A   Clear
10:50 AM 30.7 °F - 27.3 °F 87% 29.80 in 7.0 mi Calm Calm - N/A   Clear
11:10 AM 33.4 °F - 28.6 °F 82% 29.80 in 5.0 mi Calm Calm - N/A   Haze
11:30 AM 32.4 °F - 27.7 °F 83% 29.79 in 5.0 mi Calm Calm - N/A   Clear
11:50 AM 33.4 °F 30.4 °F 28.0 °F 81% 29.79 in 7.0 mi West 3.5 mph - N/A   Clear
12:10 PM 38.5 °F 34.1 °F 30.2 °F 72% 29.78 in 10.0 mi WSW 5.8 mph - N/A   Clear
12:30 PM 40.3 °F 38.2 °F 30.6 °F 68% 29.77 in 10.0 mi SW 3.5 mph - N/A   Clear
12:50 PM 39.9 °F 35.8 °F 31.1 °F 71% 29.77 in 10.0 mi WSW 5.8 mph - N/A   Clear
1:10 PM 42.1 °F 37.7 °F 31.1 °F 65% 29.76 in 10.0 mi WSW 6.9 mph - N/A   Clear
1:30 PM 43.0 °F 38.2 °F 31.1 °F 63% 29.75 in 10.0 mi WSW 8.1 mph - N/A   Clear
1:50 PM 43.3 °F 39.2 °F 31.1 °F 62% 29.75 in 10.0 mi SW 6.9 mph - N/A   Clear
2:10 PM 44.2 °F 41.0 °F 31.5 °F 61% 29.74 in 10.0 mi WSW 5.8 mph - N/A   Clear
2:30 PM 45.0 °F 38.5 °F 31.1 °F 58% 29.75 in 10.0 mi West 13.8 mph 19.6 mph N/A   Clear
2:50 PM 45.0 °F 38.9 °F 31.1 °F 58% 29.75 in 10.0 mi West 12.7 mph - N/A   Clear
3:10 PM 45.5 °F 39.2 °F 31.3 °F 58% 29.75 in 10.0 mi West 13.8 mph - N/A   Clear
3:30 PM 45.5 °F 39.9 °F 31.6 °F 58% 29.75 in 10.0 mi West 11.5 mph - N/A   Clear
3:50 PM 42.8 °F 37.5 °F 32.0 °F 66% 29.76 in 10.0 mi West 9.2 mph - N/A   Clear
4:10 PM 40.8 °F 34.1 °F 32.4 °F 72% 29.77 in 10.0 mi West 11.5 mph - N/A   Clear
4:30 PM 42.8 °F 35.4 °F 32.0 °F 66% 29.77 in 10.0 mi West 15.0 mph - N/A   Clear
4:50 PM 44.4 °F 37.5 °F 32.0 °F 62% 29.78 in 10.0 mi West 15.0 mph - N/A   Clear
5:10 PM 44.8 °F 38.3 °F 32.0 °F 61% 29.78 in 10.0 mi West 13.8 mph - N/A   Clear
5:30 PM 44.8 °F 37.7 °F 31.6 °F 60% 29.79 in 10.0 mi West 16.1 mph 23.0 mph N/A   Clear
5:50 PM 41.4 °F 33.3 °F 32.0 °F 69% 29.80 in 10.0 mi West 16.1 mph - N/A   Clear
6:10 PM 38.1 °F 31.2 °F 32.0 °F 79% 29.81 in 10.0 mi WNW 10.4 mph - N/A   Clear
6:30 PM 39.2 °F 31.2 °F 32.0 °F 75% 29.81 in 10.0 mi West 13.8 mph - N/A   Clear
6:50 PM 37.0 °F 33.3 °F 32.0 °F 82% 29.82 in 10.0 mi WNW 4.6 mph - N/A   Clear
7:10 PM 37.6 °F 32.3 °F 32.0 °F 80% 29.83 in 10.0 mi West 6.9 mph - N/A   Clear
7:30 PM 36.3 °F 28.9 °F 31.6 °F 83% 29.84 in 10.0 mi West 10.4 mph - N/A   Clear
7:50 PM 36.0 °F 28.0 °F 31.5 °F 84% 29.84 in 10.0 mi West 11.5 mph - N/A   Clear
8:10 PM 36.7 °F 29.4 °F 31.1 °F 80% 29.86 in 10.0 mi West 10.4 mph - N/A   Clear
8:30 PM 36.7 °F 31.2 °F 30.9 °F 80% 29.86 in 10.0 mi West 6.9 mph - N/A   Clear
8:50 PM 36.7 °F 31.2 °F 31.1 °F 80% 29.87 in 10.0 mi West 6.9 mph - N/A   Clear
9:10 PM 36.9 °F 30.7 °F 31.1 °F 80% 29.87 in 10.0 mi WNW 8.1 mph - N/A   Clear
9:50 PM 37.4 °F 28.9 °F 31.8 °F 80% 29.87 in 10.0 mi NW 13.8 mph - N/A   Clear
10:10 PM 36.3 °F 28.4 °F 31.6 °F 83% 29.89 in 10.0 mi West 11.5 mph - N/A   Clear
10:30 PM 36.1 °F 29.3 °F 31.6 °F 84% 29.89 in 10.0 mi West 9.2 mph - N/A   Clear
10:50 PM 34.9 °F 29.0 °F 30.7 °F 85% 29.89 in 10.0 mi West 6.9 mph - N/A   Clear
11:10 PM 34.7 °F 27.5 °F 30.7 °F 85% 29.90 in 10.0 mi West 9.2 mph - N/A   Clear
11:30 PM 32.0 °F 24.8 °F 28.9 °F 88% 29.90 in 10.0 mi West 8.1 mph - N/A   Clear
11:50 PM 32.9 °F 25.3 °F 29.5 °F 87% 29.90 in 10.0 mi West 9.2 mph - N/A   Clear